Weather in Tsakhkadzor

Armenia     40°31′57″N   44°43′00″E
temp.,
°C
wind,
m/s
gust,
m/s
humid.,
%
clouds,
%
prec.,
mm/h
press.,
hPa
HPBL,
m
10 may, mon
mon1001:00+7wsw2497100 0.7 1012442
04:00+3wnw2396100 4.2 1014343
07:000nw3396100 1.1 1018191
10:00+4wsw34628 1.4 1016947
13:00+8wsw474948 0.0 10141444
16:00+9wsw354491 0.0 10131428
19:00+4ne547731 0.0 1016429
22:000ne458736 0.0 1020264
11 may, tue
tue1101:00−1ne459033 0.0 1020230
04:00−1ne458647 0.0 1020209
07:000ne448245 0.0 1019236
10:00+7ne126921 0.0 1015655
13:00+11sw35602 0.0 10121073
16:00+13wsw46550 0.0 1011879
19:00+11w127036 0.1 1011143
22:00+4ne33914 0.1 101642
12 may, wed
wed1201:00+2ne349412 0.0 101779
04:00+3ene22860 0.0 101621
07:00+6e11720 0.0 101525
10:00+13sw35480 0.0 10141150
13:00+16sw57380 0.0 10131804
16:00+17wsw37350 0.0 10132105
19:00+15sw11525 0.0 101312
22:00+9ene22615 0.0 101618
13 may, thu
thu1301:00+8ene22715 0.0 101720
04:00+7ene22673 0.0 101715
07:00+9ene22620 0.0 101723
10:00+16wsw13360 0.0 10151072
13:00+18sw34320 0.0 10142143
16:00+19wsw33285 0.0 10141900
19:00+16ne22500 0.1 101429
22:00+10ene33803 0.1 101832
14 may, fri
fri1401:00+9ne33745 0.0 101831
04:00+8ene33752 0.0 101928
07:00+10ene22715 0.0 101840
10:00+16ne21490 0.0 1016645
13:00+20nnw023810 0.0 10152408
16:00+19se223735 0.2 10142149
19:00+15ne346855 0.2 1016176
22:00+11ne337613 0.3 101838